Location: *
(32.8667°N, 13.1833°E)
Time: 08:56:01
(UTC+00:00)

Cosmos 676 Rocket - Pass Details

Date: 18 July 2019
Orbit: 754 x 785 km, 74.0° (Epoch: 25 August)

Event Time Altitude Azimuth Distance (km) Brightness Sun altitude
Exits shadow 21:05:21 69° 15° (NNE) 814 4.1 -28.1°
Drops below altitude 10° 21:09:56 10° 17° (NNE) 2,305 6.9 -28.6°
Sets 21:12:19 0° 17° (NNE) 3,240 7.8 -28.9°
